This is the latest recevied weather packets stored in our database for station/object KI8L. If no packets are shown the sender has not sent any weather packets the latest 10 day(s).
| Time | Temp. | Humidity | Pressure | Rain* | Wind** | Luminosity | Snow |
|---|---|---|---|---|---|---|---|
| 1777647349 | 6.67° C | 99% | 1014.4 hPa | 3.05 mm | - | 37 W/m² | - |
| 1777647047 | 6.67° C | 99% | 1014 hPa | 1.78 mm | - | 41 W/m² | - |
| 1777646743 | 6.67° C | 99% | 1014.2 hPa | 0 mm | - | 35 W/m² | - |
| 1777646438 | 6.67° C | 99% | 1014.2 hPa | 1.27 mm | - | 35 W/m² | - |
| 1777646135 | 6.67° C | 99% | 1014.4 hPa | 1.27 mm | - | 32 W/m² | - |
| 1777645832 | 6.67° C | 99% | 1014.5 hPa | 0 mm | - | 26 W/m² | - |
| 1777645530 | 6.67° C | 98% | 1014.4 hPa | 0 mm | - | 23 W/m² | - |
| 1777645225 | 6.67° C | 97% | 1014.4 hPa | 1.78 mm | - | 63 W/m² | - |
| 1777644921 | 6.67° C | 99% | 1014.3 hPa | 1.78 mm | - | 123 W/m² | - |
| 1777644619 | 6.67° C | 99% | 1014.6 hPa | 1.78 mm | - | 73 W/m² | - |
| 1777644315 | 6.67° C | 99% | 1014.3 hPa | 3.05 mm | - | 70 W/m² | - |
| 1777644011 | 6.67° C | 99% | 1014.5 hPa | 1.27 mm | - | 48 W/m² | - |
| 1777643708 | 6.11° C | 99% | 1014.5 hPa | 1.78 mm | - | 41 W/m² | - |
| 1777643406 | 6.67° C | 99% | 1014.5 hPa | 1.78 mm | - | 51 W/m² | - |
| 1777643102 | 6.11° C | 99% | 1014.5 hPa | 3.05 mm | - | 48 W/m² | - |
| 1777642799 | 6.67° C | 99% | 1014.4 hPa | 3.05 mm | - | 48 W/m² | - |
| 1777642495 | 6.11° C | 99% | 1014.6 hPa | 1.27 mm | - | 40 W/m² | - |
| 1777642192 | 6.11° C | 99% | 1014.7 hPa | 1.27 mm | - | 41 W/m² | - |
| 1777641890 | 6.11° C | 99% | 1014.8 hPa | 1.78 mm | - | 37 W/m² | - |
| 1777641590 | 6.67° C | 99% | 1014.8 hPa | 1.78 mm | - | 42 W/m² | - |
| 1777641290 | 6.67° C | 97% | 1014.7 hPa | 0 mm | - | 61 W/m² | - |
| 1777640986 | 6.67° C | 97% | 1014.7 hPa | 0 mm | - | 53 W/m² | - |
| 1777640683 | 6.67° C | 98% | 1014.6 hPa | 0 mm | - | 61 W/m² | - |
| 1777640379 | 6.67° C | 98% | 1014.9 hPa | 0 mm | - | 36 W/m² | - |
| 1777640076 | 6.67° C | 97% | 1014.8 hPa | 1.27 mm | - | 28 W/m² | - |
* Rain latest hour (hover to see other rain measurements)
** Current wind speed in m/s (hover to see current wind gust speed)